COSMOS 2251 DEB, 34560

Orbit data source: Space-Track

COSMOS 2251 DEB, 34560 is space debris in LEO originally from a launch on Wed, 16 Jun 1993 UTC launched from the Plesetsk Missile And Space Complex (PKMTR). The debris from Iridium 33, an American commercial communications satellite, has been tracked extensively since its accidental collision with the defunct Russian satellite Cosmos 2251 in 2009. This event, occurring at high speed in low Earth orbit (LEO), generated thousands of pieces of space debris, significantly increasing the risk of further collisions. The Iridium 33 debris cloud has impacted space traffic management and orbital debris mitigation strategies, making it a subject of ongoing study in space situational awareness.

Loading next visibility...
Identifier
34560, 1993-036UW
Orbit
LEO
Country
Flag of CISCIS
Related business
Manufacturer
Unknown
Mission
Spacecraft
Bus & Motor
Unknown
Mass
Unknown
Launch date (UTC)
1993-06-16 (33 years ago)
Launch vehicle
Unknown
Launch site
Plesetsk Missile And Space Complex (PKMTR)
Object type
Payload
Rocket body
Debris
Shape & HBR
Unknown shape, 0.1 m
Radar Cross Section
Medium (>0.1 m² and <1 m²)

Expand to show TLE details & history
Last TLE update: 16 hours ago

TLE from 16 hours ago
0 COSMOS 2251 DEB
1 34560U 93036UW  26207.63039546  .00009752  00000-0  13792-2 0  9999
2 34560  74.0153  60.1644 0015241  91.9251 336.6404 14.77134086915823
Epoch: 2026-07-26T15:07Z
TLE epoch observation values (Epoch: 2026-07-26T15:07:46.167Z)
Latitude
63.53707°
Longitude
-76.18881°
Altitude
639.146 km
Speed
7.55 km/s
True Right ascension
06h 20m 18s
True Declination
63° 23' 50"
Sunlit
Object was in daylight at epoch
Visualization orbit readout
Latitude
Unknown
Longitude
Unknown
Altitude
Unknown
Speed
Unknown
Apparent Right ascension
Unknown
Apparent Declination
Unknown
Sunlit
N/A
Visualization observer readout
Local Sidereal Time
20:29:56
Azimuth
Unknown
Elevation
Unknown
Doppler factor
Unknown
Orbital elements
Apogee altitude
646.656 km
Perigee altitude
625.275 km
Semi-major axis
7,014.103 km
Eccentricity
0.00152
Inclination
74.0153°
RAAN
60.1644°
Arg. of periapsis
91.9251°
True anomaly
336.57103°
Mean anomaly
336.6404°
Eccentric anomaly
336.60573°
Mean motion
3.69475 °/min
Orbital period
97.44 mins
BSTAR
0.0013792
Loading maneuver chart data...
Computing Atmospheric mass density...

Documentation

Showing up to 5 results
|